User: anonymous   Login
Location: Unspecified
(0.0000°N, 0.0000°E)
Time: 00:16:38
(UTC+00:00)
Language:

CUSAT 1 - Orbit

View from above orbital plane
View from above orbital plane
View from above satellite
View from above satellite

Ground track
Ground track

The orbit data is extracted from the following two-line orbital elements,

1 39266U 13055B   17328.61868338 +.00005081 +00000-0 +13982-3 0  9994
2 39266 080.9863 201.2709 0656366 120.0845 246.7089 14.30760389214920
Epoch (UTC): 24 November 2017 14:50:54
Eccentricity: 0.0656366
inclination: 80.9863°
perigee height: 319 km
apogee height: 1259 km
right ascension of ascending node: 201.2709°
argument of perigee: 120.0845°
revolutions per day: 14.30760389
mean anomaly at epoch: 246.7089°
orbit number at epoch: 21492

The dashed part of the orbit path shows where the satellite is in the earth's shadow,  

DLR